Pullman, WA

2:52 AM PDT on June 20, 2018 (GMT -0700)
Pullman-Moscow Regional

Weather History for KPUW - September, 2017

Change the Weather History Date:

Thursday, September 14, 2017

  Actual Average Record
Temperature  
Mean Temperature 56 °F 59 °F  
Max Temperature 64 °F 74 °F 93 °F (2000)
Min Temperature 47 °F 43 °F 24 °F (1970)
Degree Days  
Heating Degree Days 9 7  
Month to date heating degree days 14 76  
Since 1 July heating degree days 37 209  
Cooling Degree Days 0 1  
Month to date cooling degree days 81 18  
Year to date cooling degree days 515 208  
Growing Degree Days 7 (Base 50)    
Moisture  
Dew Point 32 °F    
Average Humidity 45    
Maximum Humidity 59    
Minimum Humidity 30    
Precipitation  
Precipitation 0.00 in 0.03 in 0.94 in (1955)
Month to date precipitation 0.00 0.32  
Year to date precipitation 14.93 11.23  
Sea Level Pressure  
Sea Level Pressure 29.90 in    
Wind  
Wind Speed 4 mph (West)    
Max Wind Speed 12 mph    
Max Gust Speed 17 mph    
Visibility 9 miles    
Events      
T = Trace of Precipitation, MM = Missing Value Source: NWS Daily Summary

Daily Weather History Graph

Daily Weather History Graph

Search for Another Location

Airport or City:

Astronomy

Sep. 14, 2017 Rise Set
Actual Time 6:25 AM PDT 7:01 PM PDT
Civil Twilight 5:54 AM PDT 7:31 PM PDT
Nautical Twilight 5:18 AM PDT 8:07 PM PDT
Astronomical Twilight 4:40 AM PDT 8:45 PM PDT
Moon 12:09 AM PDT (9/14) 3:39 PM PDT (9/14)
Length of Visible Light 13h 36m
Length of Day
12h 36m
Waning Crescent, 33% of the Moon is Illuminated
Sep 14
Waning Crescent
Sep 19
New
Sep 27
First Quarter
Oct 5
Full
Oct 12
Last Quarter

Hourly Weather History & Observations

Time (PDT) Temp. Dew Point Humidity Pressure Visibility Wind Dir Wind Speed Gust Speed Precip Events Conditions
12:53 AM 51.1 °F 28.9 °F 43% 29.82 in 10.0 mi Calm Calm - N/A   Clear
1:53 AM 51.1 °F 30.0 °F 44% 29.81 in 10.0 mi Calm Calm - N/A   Clear
2:53 AM 51.1 °F 30.9 °F 46% 29.82 in 10.0 mi Calm Calm - N/A   Clear
3:53 AM 52.0 °F 33.1 °F 49% 29.83 in 10.0 mi Calm Calm - N/A   Clear
4:53 AM 51.1 °F 32.0 °F 48% 29.83 in 10.0 mi Calm Calm - N/A   Clear
5:53 AM 51.1 °F 30.9 °F 46% 29.83 in 10.0 mi Calm Calm - N/A   Clear
6:53 AM 52.0 °F 30.9 °F 45% 29.85 in 9.0 mi WSW 3.5 mph - N/A   Clear
7:53 AM 53.1 °F 30.0 °F 41% 29.86 in 10.0 mi WNW 6.9 mph - N/A   Scattered Clouds
8:53 AM 53.1 °F 28.9 °F 40% 29.89 in 10.0 mi WNW 3.5 mph - N/A   Overcast
9:53 AM 55.0 °F 30.0 °F 38% 29.90 in 8.0 mi South 8.1 mph - N/A   Mostly Cloudy
10:53 AM 57.9 °F 30.0 °F 35% 29.92 in 10.0 mi WSW 8.1 mph - N/A   Partly Cloudy
11:53 AM 59.0 °F 30.9 °F 35% 29.93 in 8.0 mi WSW 8.1 mph - N/A   Clear
12:53 PM 61.0 °F 30.0 °F 31% 29.93 in 10.0 mi WNW 11.5 mph - N/A   Partly Cloudy
1:53 PM 62.1 °F 30.9 °F 31% 29.92 in 10.0 mi WSW 10.4 mph - N/A   Scattered Clouds
2:53 PM 63.0 °F 30.9 °F 30% 29.92 in 10.0 mi West 9.2 mph - N/A   Partly Cloudy
3:53 PM 63.0 °F 32.0 °F 31% 29.91 in 10.0 mi WSW 6.9 mph - N/A   Partly Cloudy
4:53 PM 63.0 °F 32.0 °F 31% 29.91 in 10.0 mi West 3.5 mph - N/A   Overcast
5:53 PM 62.1 °F 33.1 °F 34% 29.92 in 9.0 mi West 4.6 mph - N/A   Clear
6:53 PM 60.1 °F 33.1 °F 36% 29.93 in 8.0 mi WNW 3.5 mph - N/A   Clear
7:53 PM 57.0 °F 34.0 °F 42% 29.94 in 8.0 mi Calm Calm - N/A   Clear
8:53 PM 54.0 °F 30.9 °F 41% 29.95 in 8.0 mi Calm Calm - N/A   Clear
9:53 PM 53.1 °F 33.1 °F 47% 29.96 in 9.0 mi Calm Calm - N/A   Clear
10:53 PM 53.1 °F 36.0 °F 52% 29.97 in 9.0 mi ESE 6.9 mph - N/A   Mostly Cloudy
11:53 PM 51.1 °F 37.9 °F 61% 29.98 in 8.0 mi NE 3.5 mph - N/A   Clear